• In Belarus
  • List of Countries
  • For 7 days
  • Water Temperature
  • Satellite Maps
  • Weather Map
  • Weather Widgets
  • user-avatar
    Login

    Hourly Weather Kandahar

    Today, 18 October, Thursday

    Time Temperature Precipitation Wind Pressure Humidity
    00:00 +16°C° 0 mm 2 mps 675 mmHg 24%
    01:00 +16°C° 0 mm 2 mps 674 mmHg 25%
    02:00 +15°C° 0 mm 2 mps 674 mmHg 26%
    03:00 +15°C° 0 mm 2 mps 674 mmHg 27%
    04:00 +14°C° 0 mm 2 mps 674 mmHg 28%
    05:00 +15°C° 0 mm 2 mps 675 mmHg 27%
    06:00 +15°C° 0 mm 2 mps 675 mmHg 26%
    07:00 +16°C° 0 mm 2 mps 676 mmHg 25%
    08:00 +17°C° 0 mm 2 mps 676 mmHg 23%
    09:00 +19°C° 0 mm 2 mps 677 mmHg 20%
    10:00 +20°C° 0 mm 2 mps 677 mmHg 18%
    11:00 +21°C° 0 mm 3 mps 677 mmHg 16%
    12:00 +24°C° 0 mm 3 mps 677 mmHg 15%
    13:00 +25°C° 0 mm 4 mps 676 mmHg 13%
    14:00 +25°C° 0 mm 4 mps 676 mmHg 13%
    15:00 +23°C° 0 mm 4 mps 676 mmHg 13%
    16:00 +23°C° 0 mm 5 mps 676 mmHg 12%
    17:00 +22°C° 0 mm 4 mps 676 mmHg 14%
    18:00 +20°C° 0 mm 3 mps 676 mmHg 16%
    19:00 +19°C° 0 mm 2 mps 676 mmHg 17%
    20:00 +18°C° 0 mm 2 mps 676 mmHg 18%
    21:00 +17°C° 0 mm 2 mps 676 mmHg 20%
    22:00 +16°C° 0 mm 2 mps 676 mmHg 21%
    23:00 +16°C° 0 mm 2 mps 676 mmHg 22%

    Tomorrow, 19 October, Friday

    Time Temperature Precipitation Wind Pressure Humidity
    00:00 +15°C° 0 mm 1 mps 676 mmHg 23%
    01:00 +14°C° 0 mm 1 mps 675 mmHg 24%
    02:00 +14°C° 0 mm 1 mps 675 mmHg 25%
    03:00 +13°C° 0 mm 1 mps 675 mmHg 26%
    04:00 +13°C° 0 mm 1 mps 675 mmHg 27%
    05:00 +14°C° 0 mm 1 mps 676 mmHg 25%
    06:00 +15°C° 0 mm 1 mps 676 mmHg 24%
    07:00 +15°C° 0 mm 1 mps 677 mmHg 23%
    08:00 +18°C° 0 mm 1 mps 678 mmHg 20%
    09:00 +20°C° 0 mm 1 mps 678 mmHg 18%
    10:00 +20°C° 0 mm 2 mps 678 mmHg 16%
    11:00 +21°C° 0 mm 2 mps 678 mmHg 14%
    12:00 +24°C° 0 mm 3 mps 678 mmHg 13%
    13:00 +25°C° 0 mm 4 mps 678 mmHg 12%
    14:00 +23°C° 0 mm 4 mps 678 mmHg 12%
    15:00 +23°C° 0 mm 4 mps 677 mmHg 12%
    16:00 +23°C° 0 mm 5 mps 677 mmHg 12%
    17:00 +21°C° 0 mm 4 mps 677 mmHg 14%
    18:00 +20°C° 0 mm 3 mps 677 mmHg 15%
    19:00 +18°C° 0 mm 2 mps 677 mmHg 17%
    20:00 +17°C° 0 mm 2 mps 677 mmHg 17%
    21:00 +16°C° 0 mm 2 mps 677 mmHg 18%
    22:00 +16°C° 0 mm 1 mps 677 mmHg 19%
    23:00 +15°C° 0 mm 1 mps 677 mmHg 20%

    Day after tomorrow, 20 October, Saturday

    Time Temperature Precipitation Wind Pressure Humidity
    00:00 +14°C° 0 mm 1 mps 677 mmHg 21%
    01:00 +13°C° 0 mm 1 mps 677 mmHg 22%
    02:00 +12°C° 0 mm 0 mps 676 mmHg 23%
    03:00 +11°C° 0 mm 0 mps 676 mmHg 24%
    04:00 +11°C° 0 mm 0 mps 676 mmHg 25%
    05:00 +12°C° 0 mm 0 mps 677 mmHg 23%
    06:00 +13°C° 0 mm 0 mps 678 mmHg 21%
    07:00 +14°C° 0 mm 0 mps 678 mmHg 20%
    08:00 +18°C° 0 mm 1 mps 679 mmHg 18%
    09:00 +20°C° 0 mm 1 mps 679 mmHg 16%
    10:00 +21°C° 0 mm 1 mps 680 mmHg 13%
    11:00 +22°C° 0 mm 1 mps 680 mmHg 12%
    12:00 +23°C° 0 mm 1 mps 679 mmHg 11%
    13:00 +24°C° 0 mm 1 mps 679 mmHg 11%
    14:00 +24°C° 0 mm 2 mps 679 mmHg 10%
    15:00 +24°C° 0 mm 2 mps 678 mmHg 10%
    16:00 +24°C° 0 mm 2 mps 678 mmHg 10%
    17:00 +21°C° 0 mm 2 mps 678 mmHg 11%
    18:00 +20°C° 0 mm 1 mps 678 mmHg 13%
    19:00 +18°C° 0 mm 1 mps 678 mmHg 14%
    20:00 +16°C° 0 mm 1 mps 678 mmHg 15%
    21:00 +15°C° 0 mm 0 mps 678 mmHg 16%
    22:00 +14°C° 0 mm 0 mps 678 mmHg 16%
    23:00 +13°C° 0 mm 0 mps 678 mmHg 17%

    21 October, Sunday

    Time Temperature Precipitation Wind Pressure Humidity
    00:00 +13°C° 0 mm 0 mps 677 mmHg 17%
    01:00 +12°C° 0 mm 0 mps 677 mmHg 18%
    02:00 +12°C° 0 mm 0 mps 677 mmHg 19%
    03:00 +12°C° 0 mm 0 mps 677 mmHg 19%
    04:00 +11°C° 0 mm 0 mps 677 mmHg 20%
    05:00 +12°C° 0 mm 0 mps 677 mmHg 18%
    06:00 +15°C° 0 mm 1 mps 678 mmHg 17%
    07:00 +16°C° 0 mm 1 mps 679 mmHg 16%
    08:00 +19°C° 0 mm 1 mps 679 mmHg 14%
    09:00 +21°C° 0 mm 1 mps 680 mmHg 12%
    10:00 +23°C° 0 mm 1 mps 680 mmHg 11%
    11:00 +24°C° 0 mm 1 mps 680 mmHg 10%
    12:00 +24°C° 0 mm 1 mps 679 mmHg 9%
    13:00 +25°C° 0 mm 2 mps 679 mmHg 9%
    14:00 +25°C° 0 mm 2 mps 679 mmHg 9%
    15:00 +25°C° 0 mm 2 mps 678 mmHg 9%
    16:00 +25°C° 0 mm 3 mps 678 mmHg 9%
    17:00 +23°C° 0 mm 2 mps 678 mmHg 11%
    18:00 +20°C° 0 mm 2 mps 678 mmHg 12%
    19:00 +19°C° 0 mm 1 mps 678 mmHg 14%
    20:00 +19°C° 0 mm 1 mps 678 mmHg 14%
    21:00 +18°C° 0 mm 1 mps 678 mmHg 15%
    22:00 +15°C° 0 mm 0 mps 677 mmHg 16%
    23:00 +15°C° 0 mm 0 mps 677 mmHg 16%

    22 October, Monday

    Time Temperature Precipitation Wind Pressure Humidity
    00:00 +14°C° 0 mm 0 mps 677 mmHg 17%
    01:00 +14°C° 0 mm 0 mps 676 mmHg 17%
    02:00 +13°C° 0 mm 0 mps 676 mmHg 18%
    03:00 +13°C° 0 mm 0 mps 676 mmHg 18%
    04:00 +12°C° 0 mm 0 mps 676 mmHg 19%
    05:00 +13°C° 0 mm 0 mps 676 mmHg 18%
    06:00 +16°C° 0 mm 1 mps 677 mmHg 16%
    07:00 +18°C° 0 mm 1 mps 678 mmHg 15%
    08:00 +20°C° 0 mm 1 mps 678 mmHg 14%
    09:00 +20°C° 0 mm 0 mps 678 mmHg 12%
    10:00 +22°C° 0 mm 0 mps 679 mmHg 10%
    11:00 +25°C° 0 mm 1 mps 678 mmHg 10%
    12:00 +26°C° 0 mm 2 mps 678 mmHg 10%
    13:00 +27°C° 0 mm 3 mps 677 mmHg 9%
    14:00 +27°C° 0 mm 3 mps 677 mmHg 10%
    15:00 +27°C° 0 mm 4 mps 677 mmHg 10%
    16:00 +27°C° 0 mm 4 mps 677 mmHg 10%
    17:00 +25°C° 0 mm 3 mps 677 mmHg 12%
    18:00 +22°C° 0 mm 3 mps 677 mmHg 13%
    19:00 +20°C° 0 mm 2 mps 677 mmHg 14%
    20:00 +19°C° 0 mm 2 mps 676 mmHg 15%
    21:00 +19°C° 0 mm 1 mps 676 mmHg 15%
    22:00 +18°C° 0 mm 1 mps 676 mmHg 16%
    23:00 +18°C° 0 mm 1 mps 676 mmHg 17%

    23 October, Tuesday

    Time Temperature Precipitation Wind Pressure Humidity
    00:00 +16°C° 0 mm 1 mps 676 mmHg 18%
    01:00 +16°C° 0 mm 1 mps 675 mmHg 18%
    02:00 +15°C° 0 mm 1 mps 675 mmHg 19%
    03:00 +15°C° 0 mm 1 mps 675 mmHg 20%
    04:00 +14°C° 0 mm 1 mps 675 mmHg 20%
    05:00 +15°C° 0 mm 1 mps 675 mmHg 19%
    06:00 +16°C° 0 mm 1 mps 676 mmHg 18%
    07:00 +16°C° 0 mm 0 mps 677 mmHg 17%
    08:00 +20°C° 0 mm 1 mps 677 mmHg 15%
    09:00 +23°C° 0 mm 1 mps 677 mmHg 13%
    10:00 +25°C° 0 mm 1 mps 678 mmHg 12%
    11:00 +26°C° 0 mm 2 mps 677 mmHg 11%
    12:00 +27°C° 0 mm 2 mps 677 mmHg 11%
    13:00 +28°C° 0 mm 3 mps 677 mmHg 11%
    14:00 +28°C° 0 mm 3 mps 676 mmHg 11%
    15:00 +28°C° 0 mm 4 mps 676 mmHg 12%
    16:00 +28°C° 0 mm 4 mps 676 mmHg 12%
    17:00 +26°C° 0 mm 4 mps 676 mmHg 14%
    18:00 +24°C° 0 mm 3 mps 676 mmHg 15%
    19:00 +23°C° 0 mm 2 mps 676 mmHg 17%
    20:00 +21°C° 0 mm 2 mps 676 mmHg 18%
    21:00 +20°C° 0 mm 2 mps 676 mmHg 19%
    22:00 +20°C° 0 mm 2 mps 676 mmHg 20%
    23:00 +19°C° 0 mm 2 mps 675 mmHg 21%
    Show more